Tracking 29892 objects as of 21-Nov-2024
HD Live streaming from Space Station
objects crossing your sky now

ONEWEB-0006

Track ONEWEB-0006 now!
10-day predictions


NORAD ID: 44061
Int'l Code: 2019-010E
Perigee: 1,207.6 km
Apogee: 1,210.3 km
Inclination: 87.9 °
Period: 109.5 minutes
Semi major axis: 7579 km
RCS: Unknown
Launch date: February 27, 2019
Source: United Kingdom (UK)
Launch site: FRENCH GUIANA (FRGUI)
Your satellite tracking list
Your tracking list is empty




NASA's NSSDC Master Catalog

Two Line Element Set (TLE):
1 44061U 19010E   24325.56651707 -.00000005  00000-0 -48097-4 0  9998
2 44061  87.9091  13.3750 0001772  86.9888 273.1445 13.15546636276005
Source of the keplerian elements: AFSPC